Regional Weather Roundup
Issued by NWS Jackson, KY

Home | Current Version | Previous Version | Text Only | Print | Product List | Glossary Off
Versions: 1 2 3 4 5 6 7 8 9 10 11 12 13 14 15 16 17 18 19 20 21 22 23 24 25 26 27 28 29 30 31 32 33 34 35 36 37 38 39 40 41 42 43 44 45 46 47 48 49 50

000
ASUS43 KJKL 300711
RWRJKL

EAST KENTUCKY HOURLY WEATHER ROUNDUP
NATIONAL WEATHER SERVICE JACKSON KY
300 AM EDT TUE SEP 30 2014

NOTE: "FAIR" INDICATES FEW OR NO CLOUDS BELOW 12,000 FEET WITH
NO SIGNIFICANT WEATHER AND/OR OBSTRUCTIONS TO VISIBILITY.

* THESE REPORTS ARE NOT UNDER NWS QUALITY CONTROL AND MAY NOT
  REPORT WEATHER SUCH AS PRECIPITATION AND FOG.

KYZ079-080-083-085-087-088-110-112-115-119-120-300800
...EASTERN KENTUCKY...

CITY           SKY/WX    TMP DP  RH WIND       PRES   REMARKS
JACKSON        CLEAR     62  59  90 CALM      29.96S
LONDON         FOG       58  56  93 CALM      29.97S VSB 1/4
SOMERSET*      FOG       57  57 100 CALM      29.97S VSB 3/4
MONTICELLO*    FOG       55  54  97 CALM      29.98S VSB 1/4
WILLIAMSBURG*    N/A     59  59 100 CALM      29.97S
MIDDLESBORO*   FOG       59  59 100 CALM      29.98F VSB 1/4
HARLAN APT*    CLOUDY    59  59 100 CALM      29.99S VSB 1/4
HAZARD APT*    SUNNY     61  61 100 CALM      29.96S FOG
BLACK MTN*       N/A     59  54  82 N1          N/A
PIKEVILLE APT* CLEAR     63  61  94 S3        29.96S
MOREHEAD APT*  PTSUNNY   57  57 100 CALM      29.96S FOG
$$

KYZ035-036-041-042-044-050-067-078-099-300800
...CENTRAL KENTUCKY...

CITY           SKY/WX    TMP DP  RH WIND       PRES   REMARKS
MT STERLING*   CLEAR     52  52 100 SW5       29.96F
FLEMING/MASON* CLEAR     57  54  88 CALM      29.95S
DANVILLE*      CLEAR     54  52  94 CALM      29.97S
RICHMOND*      CLEAR     55  52  88 CALM      29.95S
LEXINGTON      CLEAR     57  52  83 CALM      29.95S
FRANKFORT      CLEAR     54  51  90 CALM      29.94S
$$

KYZ091>093-OHZ055-061-077-WVZ005-015-034-035-042-300800
...SOUTHERN OHIO/WEST VIRGINIA...

CITY           SKY/WX    TMP DP  RH WIND       PRES   REMARKS
COVINGTON      CLEAR     55  53  93 S3        29.94S
COLUMBUS       CLEAR     55  52  89 CALM      29.91S
DAYTON         CLEAR     60  50  69 CALM      29.93F
WILMINGTON     CLEAR     52  48  86 CALM      29.93S
HUNTINGTON     CLEAR     58  58 100 CALM      29.91F
CHARLESTON     MOCLDY    60  59  96 CALM      29.92S FOG
PINEVILLE*     FOG       60  60 100 MISG      30.02F VSB 1/2
BECKLEY        FOG       55  54  96 CALM      29.99F VSB 3/4
BLUEFIELD      CLEAR     59  54  83 W6        30.01F
$$

VAZ002-007-008-TNZ017-027-036-066-071-300800
...SOUTHWEST VIRGINIA/EAST TENNESSEE...

CITY           SKY/WX    TMP DP  RH WIND       PRES   REMARKS
WISE*            N/A     59  59 100 SW3       30.02F FOG
JONESVILLE*    FOG       57  57 100 CALM      30.00F VSB<1/4
ABINGDON*      CLOUDY    58  58 100 CALM      30.00S FOG
BRISTOL        CLEAR     57  55  93 CALM      29.99S FOG
OAK RIDGE      FOG       62  61  96 CALM      29.97S VSB 1/2
CROSSVILLE     CLEAR     60  56  86 CALM      29.99F
NASHVILLE      CLEAR     65  61  87 CALM      29.95S
$$

...KEY TO REMARKS...
VSB - VISIBILITY IN MILES
WCI - WIND CHILL INDEX
HX  - HEAT INDEX

$$


USA.gov is the U.S. government's official web portal to all federal, state and local government web resources and services.